Regional Weather Roundup
Issued by NWS

Home | Current Version | Previous Version | Graphics & Text | Print | Product List | Glossary On
Versions: 1 2 3 4 5 6 7 8 9 10 11 12 13 14 15 16 17 18 19 20 21 22 23 24 25 26 27 28 29 30 31 32 33 34 35 36 37 38 39 40 41 42 43 44 45 46 47 48 49 50
327
ASUS43 KBIS 191702
RWRND

NORTH DAKOTA REGIONAL WEATHER ROUNDUP
NATIONAL WEATHER SERVICE BISMARCK ND
1200 PM CDT SAT AUG 19 2017

NOTE: "FAIR" INDICATES FEW OR NO CLOUDS BELOW 12,000 FEET WITH NO
SIGNIFICANT WEATHER AND/OR OBSTRUCTIONS TO VISIBILITY.


NDZ001>003-009>011-017-191800-
NORTHWEST NORTH DAKOTA

CITY           SKY/WX    TMP DP  RH WIND       PRES   REMARKS
WILLISTON      SUNNY     82  50  32 W12       29.74R
MINOT          MOSUNNY   78  57  48 S13       29.70F
MINOT AFB      SUNNY     80  57  45 S10       29.68F
$$

NDZ018>021-031>035-040>046-191800-
SOUTHWEST NORTH DAKOTA

CITY           SKY/WX    TMP DP  RH WIND       PRES   REMARKS
BISMARCK       SUNNY     79  61  53 S12       29.78F
DICKINSON      SUNNY     80  49  33 W12       29.78S
GARRISON         N/A     79  56  45 SW12      29.74F
HETTINGER ARPT SUNNY     81  52  36 W15       29.83F
$$

NDZ004>008-012>016-024-026-027-054-191800-
NORTHEAST NORTH DAKOTA

CITY           SKY/WX    TMP DP  RH WIND       PRES   REMARKS
GRAND FORKS    SUNNY     81  61  50 S14       29.80F
GRND FRKS AFB  SUNNY     81  60  47 SW10      29.80F
DEVILS LAKE    SUNNY     80  56  43 S22       29.78F
$$

NDZ022-023-025-028>030-036>039-047>053-191800-
SOUTHEAST NORTH DAKOTA

CITY           SKY/WX    TMP DP  RH WIND       PRES   REMARKS
FARGO          SUNNY     77  64  64 S12       29.85F
JAMESTOWN      SUNNY     78  62  57 S14       29.82F
$$





USA.gov is the U.S. government's official web portal to all federal, state and local government web resources and services.